[[{"header":{"parameterUnit":"m.s-1","parameterCategory":1,"la1":30.2991,"la2":30.254,"lo1":-89.0895,"lo2":-89.0444,"dy":0.0017,"dx":0.0017,"nx":28,"ny":28,"refTime":"2024-08-15T09:00:00:Z","depth":0,"parameterNumber":2,"parameterNumberName":"U-component_of_WINDS"},"data":[0,0,0,0,0,0,0,0,0,0,0,0,0,0,0,0,0,0,0,0,0,0,0,0,0,0,0,0,0,0,0,0,0,0,0,0,0,0,0,0,0,0,0,0,0,0,0,0,0,0,0,0,0,0,0,0,0,0,0.9356,0.9355,0,0.922,0.9219,0.9217,0.9149,0.9149,0.9149,0.9149,0.9,0.8996,0.8992,0,0,0,0,0,0,0,0,0,0,0,0,0,0.9548,0.9545,0.9356,0.9355,0.9353,0.9221,0.9219,0.9217,0.9149,0.9149,0.9149,0.9149,0.9001,0.8996,0.8992,0,0,0,0,0,0,0,0,0,0,0,0,0,0.9443,0.9543,0.9357,0.9303,0.9297,0.9221,0.9219,0.9216,0.9149,0.9149,0.9149,0.9149,0.9003,0.8997,0.8991,0.8955,0,0,0.8973,0.897,0,0,0,0,0,0,0,0,0.9449,0.9436,0.9313,0.9307,0.93,0.9202,0.9232,0.9128,0.9149,0.9205,0.9149,0.9148,0.9066,0.9055,0.9029,0.8948,0.8941,0.8972,0.8969,0.8966,0.8965,0,0,0,0,0,0,0,0.9457,0.9442,0.9302,0.9311,0.9303,0.9283,0.9268,0.9212,0.9137,0.92,0.9195,0.918,0.9063,0.9035,0.9025,0.8939,0.8973,0.8967,0.8964,0.8961,0.882,0.882,0,0,0,0,0,0,0.9474,0.9448,0.9307,0.9298,0.9376,0.928,0.9263,0.9233,0.9137,0.9123,0.918,0.9177,0.9045,0.9032,0.902,0.8971,0.8966,0.8961,0.8957,0.8821,0.882,0.882,0,0,0,0,0,0,0.9478,0.9462,0.9312,0.9372,0.9351,0.9276,0.9243,0.923,0.9203,0.9123,0.9108,0.9166,0.9045,0.9028,0.8972,0.8965,0.8958,0.8953,0.8821,0.8821,0.882,0.8873,0,0,0,0,0,0,0.9484,0.9464,0.9451,0.9372,0.9348,0.9269,0.9243,0.9228,0.9194,0.9189,0.9106,0.9092,0.9044,0.8981,0.8966,0.8956,0.8948,0.8821,0.8821,0.882,0.8872,0.8875,0.8877,0,0,0,0,0,0.9491,0.947,0.9451,0.9434,0.9332,0.9269,0.9255,0.9203,0.9194,0.9179,0.9128,0.9095,0.8969,0.8976,0.8959,0.8947,0.8821,0.8821,0.882,0.887,0.8874,0.8877,0,0,0,0,0,0,0.9546,0.9458,0.9437,0.939,0.9338,0.9258,0.9238,0.9208,0.9155,0.9152,0.9086,0.9068,0.9018,0.8976,0.8987,0.8907,0.8891,0.8887,0.8936,0.8938,0.8941,0.8951,0.8943,0,0,0,0,0,0.9554,0.9514,0.9437,0.9403,0.9378,0.9313,0.9284,0.9248,0.919,0.9167,0.9111,0.9054,0.9001,0.8967,0.8914,0.8866,0.8846,0.8849,0.8852,0.8855,0.8851,0.8822,0.8822,0.8819,0.8819,0.8819,0,0,0.9567,0.9514,0.9492,0.9413,0.9368,0.9325,0.9295,0.925,0.9217,0.9159,0.9104,0.9061,0.8992,0.894,0.8914,0.8904,0.8848,0.8854,0.8857,0.8852,0.8821,0.8822,0.8822,0.8819,0.8819,0.8819,0,0,0.957,0.9526,0.9493,0.945,0.9385,0.9342,0.9334,0.9258,0.9229,0.9173,0.9129,0.9086,0.8997,0.895,0.8915,0.8901,0.8868,0.8885,0.8899,0.8871,0.8872,0.8872,0.8866,0.8864,0.8883,0.8883,0.8883,0,0.9594,0.953,0.9479,0.9438,0.9403,0.9353,0.9317,0.9277,0.9196,0.9172,0.9163,0.9051,0.9001,0.8937,0.8934,0.8907,0.8894,0.8894,0.8877,0.8876,0.8875,0.8868,0.8866,0.8885,0.8885,0.8885,0.8885,0,0.9563,0.9519,0.95,0.9427,0.9391,0.9352,0.9292,0.9261,0.9229,0.9186,0.9129,0.9067,0.9001,0.8983,0.895,0.8914,0.891,0.889,0.8873,0.8879,0.8871,0.8868,0.8889,0.8888,0.8887,0.8887,0,0,0.9595,0.9496,0.949,0.9456,0.9381,0.9345,0.9303,0.9242,0.9216,0.9162,0.9124,0.9051,0.9032,0.8991,0.8952,0.8928,0.892,0.891,0.8907,0.8913,0.8875,0.8891,0.8889,0.8898,0.8898,0.8897,0.8881,0,0.9586,0.9514,0.9466,0.9411,0.9369,0.9321,0.9285,0.9233,0.9192,0.9148,0.9101,0.905,0.9029,0.9005,0.8979,0.8927,0.8911,0.8927,0.886,0.8858,0.8878,0.8885,0.8901,0.8888,0.8878,0.8877,0.8877,0,0.9566,0.9518,0.9459,0.939,0.937,0.9339,0.9279,0.9238,0.9178,0.9149,0.9106,0.9067,0.9018,0.9007,0.8938,0.895,0.8919,0.889,0.8888,0.8878,0.8867,0.8875,0.8883,0.8881,0.8872,0.8872,0.8873,0,0.9595,0.9514,0.9469,0.9442,0.9359,0.9338,0.9302,0.9242,0.9208,0.9155,0.9132,0.9072,0.9039,0.8993,0.8938,0.8935,0.8874,0.8858,0.8847,0.8848,0.8835,0.8836,0.8838,0.8817,0.8817,0.8818,0.8818,0,0.959,0.9556,0.9481,0.9453,0.9413,0.9358,0.9319,0.9278,0.9225,0.9186,0.914,0.9104,0.9034,0.8988,0.8944,0.8893,0.8879,0.8852,0.8841,0.8856,0.8859,0.8834,0.8833,0.8817,0.8817,0.8817,0.8817,0,0.9614,0.9564,0.9511,0.9438,0.9419,0.9393,0.9328,0.9298,0.9255,0.9206,0.9192,0.9123,0.9067,0.9008,0.8931,0.8902,0.8852,0.8837,0.8874,0.8867,0.8859,0.886,0.8843,0.8837,0.8823,0.8823,0.8823,0,0.9614,0.9587,0.9513,0.9485,0.9452,0.9407,0.9374,0.9318,0.9284,0.9214,0.9192,0.9133,0.9083,0.8996,0.8937,0.8877,0.8859,0.8858,0.885,0.8866,0.8858,0.886,0.8856,0.886,0.886,0.8861,0.8861,0,0.9619,0.9595,0.9551,0.9497,0.9459,0.9413,0.9365,0.9344,0.9279,0.9243,0.9187,0.9149,0.9072,0.9013,0.8947,0.8906,0.8872,0.8864,0.8858,0.8873,0.8895,0.8882,0.888,0.8864,0.8864,0.8864,0.8864,0.8863,0.963,0.9604,0.9548,0.9499,0.9458,0.9415,0.9383,0.9338,0.9292,0.9227,0.9196,0.914,0.9079,0.8988,0.8948,0.8901,0.8891,0.8882,0.888,0.8878,0.8882,0.8904,0.8888,0.8888,0.8888,0.8888,0.8888,0,0.9631,0.9594,0.955,0.9486,0.9448,0.9423,0.9368,0.9337,0.9289,0.9237,0.919,0.9125,0.9069,0.9007,0.8946,0.892,0.8902,0.8906,0.8906,0.8897,0.8895,0.8906,0.8921,0.8921,0.8921,0.8921,0.8921,0.8921,0.9628,0.9583,0.9553,0.9486,0.9447,0.9395,0.9366,0.9325,0.9283,0.9214,0.9169,0.913,0.9073,0.9007,0.8953,0.8936,0.8915,0.8923,0.8901,0.89,0.8897,0.8895,0.8905,0.8919,0.8919,0.8907,0.8907,0.8907]},{"header":{"parameterUnit":"m.s-1","parameterCategory":1,"la1":30.2991,"la2":30.254,"lo1":-89.0895,"lo2":-89.0444,"dy":0.0017,"dx":0.0017,"nx":28,"ny":28,"refTime":"2024-08-15T09:00:00:Z","depth":0,"parameterNumber":3,"parameterNumberName":"V-component_of_WINDS"},"data":[0,0,0,0,0,0,0,0,0,0,0,0,0,0,0,0,0,0,0,0,0,0,0,0,0,0,0,0,0,0,0,0,0,0,0,0,0,0,0,0,0,0,0,0,0,0,0,0,0,0,0,0,0,0,0,0,0,0,1.487,1.4873,0,1.5195,1.5198,1.5202,1.5341,1.534,1.5339,1.5339,1.5676,1.5685,1.5695,0,0,0,0,0,0,0,0,0,0,0,0,0,1.4377,1.4385,1.487,1.4874,1.4878,1.5194,1.5198,1.5203,1.5341,1.534,1.5339,1.5339,1.5673,1.5684,1.5696,0,0,0,0,0,0,0,0,0,0,0,0,0,1.4635,1.4388,1.4869,1.4984,1.4998,1.5193,1.5199,1.5204,1.5341,1.534,1.5339,1.5338,1.5669,1.5683,1.5697,1.5803,0,0,1.5741,1.5747,0,0,0,0,0,0,0,0,1.462,1.4653,1.4963,1.4977,1.4992,1.5226,1.5149,1.5405,1.5341,1.5211,1.5339,1.5338,1.5527,1.5553,1.5616,1.5819,1.5833,1.5742,1.5751,1.5757,1.5761,0,0,0,0,0,0,0,1.4602,1.464,1.4998,1.4968,1.4986,1.5023,1.5058,1.5198,1.537,1.5222,1.5233,1.5269,1.5535,1.5602,1.5625,1.5838,1.5742,1.5754,1.5763,1.5769,1.6148,1.615,0,0,0,0,0,0,1.4564,1.4624,1.4988,1.5008,1.48,1.5032,1.5072,1.5152,1.5369,1.5401,1.527,1.5274,1.5578,1.5608,1.5638,1.5779,1.5757,1.577,1.5778,1.6147,1.6149,1.615,0,0,0,0,0,0,1.4553,1.4595,1.4975,1.4819,1.487,1.5042,1.513,1.5159,1.5226,1.5405,1.5437,1.5306,1.5579,1.5618,1.5762,1.5792,1.5777,1.579,1.6145,1.6147,1.615,1.6059,0,0,0,0,0,0,1.4538,1.4591,1.463,1.4819,1.4878,1.5091,1.5132,1.5166,1.525,1.5259,1.5447,1.5478,1.5581,1.5739,1.5776,1.5811,1.5801,1.6143,1.6146,1.6149,1.606,1.6057,1.6056,0,0,0,0,0,1.452,1.4592,1.4632,1.4675,1.4931,1.5092,1.5126,1.5242,1.5251,1.5295,1.541,1.5472,1.5782,1.5753,1.5795,1.5835,1.6142,1.6145,1.6149,1.6061,1.6058,1.6056,0,0,0,0,0,0,1.4404,1.4619,1.4665,1.4799,1.4926,1.5115,1.5173,1.5235,1.5363,1.5367,1.5507,1.5548,1.5681,1.5773,1.5736,1.5951,1.5968,1.5979,1.5886,1.5885,1.5883,1.5859,1.5813,0,0,0,0,0,1.4393,1.4504,1.4687,1.4788,1.4849,1.5,1.5074,1.5153,1.5291,1.5345,1.5472,1.5604,1.5733,1.5814,1.5941,1.6074,1.6118,1.6123,1.612,1.6118,1.6127,1.6207,1.6212,1.6161,1.6161,1.6161,0,0,1.4374,1.4505,1.4566,1.4768,1.4876,1.499,1.5044,1.5162,1.5249,1.5364,1.5508,1.5605,1.5763,1.5902,1.597,1.5983,1.6151,1.6122,1.6119,1.613,1.6211,1.6215,1.6219,1.6164,1.6163,1.6163,0,0,1.4397,1.4505,1.4603,1.471,1.4872,1.4972,1.4996,1.5176,1.5245,1.5391,1.5481,1.5588,1.5804,1.5914,1.5998,1.6066,1.6128,1.6104,1.6093,1.6169,1.6173,1.6178,1.6204,1.6212,1.6112,1.6112,1.6111,0,1.4352,1.4525,1.4646,1.476,1.4848,1.4956,1.5058,1.5157,1.5352,1.5412,1.5423,1.57,1.5813,1.5981,1.5998,1.6062,1.6095,1.6083,1.6163,1.6168,1.6174,1.6201,1.621,1.6108,1.6108,1.6108,1.6109,0,1.4464,1.4583,1.4643,1.4829,1.4924,1.503,1.517,1.5252,1.5323,1.5422,1.5572,1.5713,1.5872,1.5918,1.5988,1.6097,1.61,1.6135,1.6155,1.6173,1.6201,1.6212,1.6102,1.6103,1.6105,1.6106,0,0,1.4421,1.4674,1.4694,1.4781,1.4969,1.5065,1.5179,1.5333,1.5402,1.5534,1.5635,1.5817,1.5852,1.5947,1.6032,1.6098,1.6146,1.6126,1.6132,1.6127,1.6278,1.6251,1.626,1.6188,1.6191,1.6193,1.6265,0,1.4471,1.4677,1.479,1.495,1.5064,1.517,1.527,1.5398,1.5495,1.5607,1.5716,1.5843,1.5878,1.5937,1.6007,1.6125,1.6178,1.6121,1.6286,1.629,1.6244,1.6275,1.6246,1.6308,1.6276,1.6278,1.628,0,1.4555,1.4685,1.4856,1.5034,1.5086,1.5173,1.5326,1.5432,1.558,1.5646,1.5754,1.5838,1.5965,1.5974,1.6153,1.6111,1.6186,1.6254,1.6259,1.628,1.6286,1.6298,1.633,1.6339,1.6298,1.6296,1.6295,0,1.4509,1.4727,1.4858,1.4929,1.514,1.5199,1.529,1.5437,1.5524,1.5659,1.5717,1.5864,1.5946,1.6059,1.6182,1.6176,1.6349,1.6368,1.641,1.6407,1.6442,1.6438,1.6488,1.6487,1.6487,1.6487,1.6487,0,1.4553,1.4654,1.4841,1.4921,1.5039,1.517,1.5284,1.5383,1.5514,1.5618,1.572,1.5816,1.5971,1.6088,1.6185,1.6319,1.6355,1.6414,1.6439,1.6406,1.6398,1.6457,1.6456,1.6489,1.6489,1.6488,1.6488,0,1.4521,1.465,1.4801,1.4988,1.5038,1.5116,1.5278,1.5362,1.5465,1.5596,1.5634,1.5796,1.5939,1.6072,1.6262,1.6327,1.6464,1.6495,1.6413,1.6427,1.6462,1.6457,1.6552,1.6572,1.6555,1.6555,1.6555,0,1.4541,1.4621,1.4817,1.4894,1.4982,1.5104,1.5194,1.5327,1.5417,1.5594,1.5657,1.5807,1.5934,1.6157,1.6293,1.6439,1.6476,1.6499,1.6499,1.6464,1.6479,1.6473,1.6483,1.6497,1.6496,1.6496,1.6495,0,1.4564,1.4624,1.4748,1.4895,1.4999,1.5122,1.5248,1.5306,1.5464,1.556,1.5706,1.5805,1.5999,1.6148,1.631,1.6407,1.6479,1.6495,1.6513,1.648,1.643,1.646,1.6408,1.6492,1.6492,1.6493,1.6493,1.6493,1.456,1.4638,1.4788,1.4924,1.5033,1.515,1.5239,1.5353,1.5477,1.5645,1.5717,1.5866,1.6017,1.6242,1.6338,1.6458,1.6474,1.6499,1.6506,1.6511,1.6505,1.641,1.6488,1.6489,1.6489,1.6489,1.6489,0,1.459,1.4692,1.4816,1.499,1.5097,1.5154,1.5298,1.5385,1.5515,1.5648,1.5771,1.5941,1.6086,1.6234,1.6388,1.6456,1.6493,1.6492,1.6489,1.6511,1.6481,1.6451,1.646,1.646,1.646,1.646,1.646,1.646,1.4618,1.4753,1.4831,1.5023,1.5126,1.5272,1.5349,1.5458,1.5566,1.5751,1.5872,1.5967,1.6108,1.6273,1.641,1.645,1.6503,1.6493,1.6542,1.6511,1.6513,1.6514,1.6486,1.6503,1.6503,1.6563,1.6563,1.6563]}]]